GPS BIII-6 (PRN 28)

Last updated on Wed Jun 24 2026 00:03:27 GMT+0000 (Coordinated Universal Time)

1 55268U 23009A 26172.94148182 .00000073 00000+0 00000+0 0 9993 2 55268 55.1235 148.3319 0006151 317.3275 42.3704 2.00571277 25333
UTC large
Height (km)
Speed (km/s)
/
Latitude / Longitude
Inclination (degrees)
Orbital Period (minutes)
Azimuth
Elevation
Range (km)
Doppler Factor

Next 0 passes for location: London (51.5072 / 0.1276)

No passes found over London.
GPS BIII-6 (PRN 28)